This demonstration page uses our WeatherBlox Daily Observations layout. Learn more.

Left ArrowRight Arrow

30.00354, -91.81873

Hourly Observations for August 14, 2022

Temp ( °F °C ) Dew Point ( °F °C ) Humidity (%) Winds ( mph kmh ) Pressure ( in mb ) Visibility ( mi km ) Precip ( " mm )
12:53 am 00:53 Clear 76 24.4 73 22.8 91 91 ESE 3 6 29.99 1016 10 16 0.00 0.00
1:53 am 01:53 Clear 75 23.9 73 22.8 94 94 Calm 29.98 1015 10 16 0.00 0.00
2:53 am 02:53 Clear 74 23.3 72 22.2 94 94 SE 3 6 29.98 1015 8 13 0.00 0.00
3:53 am 03:53 Clear 74 23.3 72 22.2 94 94 SE 3 6 29.97 1015 10 16 0.00 0.00
4:53 am 04:53 Clear 74 23.3 72 22.2 94 94 SE 3 6 29.97 1015 9 14 0.00 0.00
5:53 am 05:53 Clear 74 23.3 72 22.2 94 94 Calm 29.98 1015 10 16 0.00 0.00
6:53 am 06:53 Sunny 75 23.9 72 22.2 90 90 Calm 29.99 1016 10 16 0.00 0.00
7:53 am 07:53 Sunny 78 25.6 75 23.9 90 90 ESE 3 6 29.99 1016 10 16 0.00 0.00
8:53 am 08:53 Sunny 82 27.8 77 25 85 85 SSE 5 7 30.01 1016 10 16 0.00 0.00
9:53 am 09:53 Mostly Sunny 84 28.9 76 24.4 77 77 S 3 6 30.02 1017 10 16 0.00 0.00
10:53 am 10:53 Sunny 86 30 73 22.8 65 65 S 6 9 30.03 1017 10 16 0.00 0.00
11:53 am 11:53 Mostly Cloudy 88 31.1 73 22.8 61 61 VRB 3 6 30.03 1017 10 16 0.00 0.00
12:53 pm 12:53 Mostly Sunny 88 31.1 72 22.2 59 59 SSW 3 6 30.03 1017 10 16 0.00 0.00
1:53 pm 13:53 Sunny 90 32.2 73 22.8 58 58 VRB 6 9 30.01 1016 10 16 0.00 0.00
2:53 pm 14:53 Sunny 90 32.2 71 21.7 54 54 WSW 7 11 29.99 1016 10 16 0.00 0.00
3:53 pm 15:53 Sunny 90 32.2 70 21.1 52 52 VRB 6 9 29.97 1015 10 16 0.00 0.00
4:53 pm 16:53 Sunny 90 32.2 70 21.1 52 52 S 7 11 29.96 1014 10 16 0.00 0.00
5:53 pm 17:53 Sunny 90 32.2 70 21.1 52 52 WSW 5 7 29.95 1014 10 16 0.00 0.00
6:53 pm 18:53 Sunny 87 30.6 72 22.2 61 61 SSW 5 7 29.94 1014 10 16 0.00 0.00
7:53 pm 19:53 Clear 81 27.2 75 23.9 82 82 SSW 3 6 29.94 1014 10 16 0.00 0.00
8:53 pm 20:53 Clear 80 26.7 74 23.3 82 82 SSW 3 6 29.94 1014 10 16 0.00 0.00
9:53 pm 21:53 Clear 79 26.1 74 23.3 85 85 S 3 6 29.95 1014 10 16 0.00 0.00
10:53 pm 22:53 Clear 78 25.6 74 23.3 87 87 Calm 29.96 1015 10 16 0.00 0.00
11:53 pm 23:53 Clear 78 25.6 74 23.3 87 87 Calm 29.97 1015 10 16 0.00 0.00

Powered by AerisWeather